Tracking 35334 objects as of 12-Sep-2026
HD Live streaming from Space Station
objects crossing your sky now

STARLINK-32548

Track STARLINK-32548 now!
10-day predictions
STARLINK-32548 is classified as:


NORAD ID: 62120
Int'l Code: 2024-222G
Launch date: November 26, 2024
Source: (USA)
Launch site: AIR FORCE EASTERN TEST RANGE (AFETR)
Your satellite tracking list
Your tracking list is empty




NASA's NSSDC Master Catalog

Two Line Element Set (TLE):
1 62120U 24222G   26254.17862099  .00012447  00000-0  46058-3 0  9998
2 62120  43.0018 168.9359 0001442 279.6069  80.4619 15.27615233101128
Source of the keplerian elements: AFSPC